SAOCOM 1-A

导读

SAOCOM 1-A是阿根廷(AR)自主研发的合成孔径雷达卫星,于当地时间2018年10月8日发射升空,属于阿根廷空间活动委员会(CONAE)主导的SAOCOM卫星星座首星。卫星搭载L波段合成孔径雷达,具备全天候、全天时对地观测能力,可用于灾害监测、资源勘探、环境监测与国防安全等领域,填补了阿根廷在雷达成像卫星领域的空白,为南美洲地区防灾减灾和地理研究提供关键数据支撑。

Basic Information
目录编号:
43641
目录名称:
SAOCOM 1-A
国际标识:
2018-076A
轨道中心:
EARTH
卫星名称:
SAOCOM 1-A
卫星全名:
--
卫星状态:
在轨 (已飞行2809 天)
发射日期:
2018-10-08 UTC
国别 :
阿根廷 (AR)
星等 :
--
Orbit Information
数据来源 国际轨道数据 AOE轨道数据
星历时间 2026-06-17T12:53:07+0800
3小时前
查看轨道信息
2026-06-15T07:00:00+0800
2天前
查看轨道信息
半长轴 7000.693km 7000.718km
偏心率 0.0001565 0.0001607
轨道倾角 97.887° 97.887°
近地点辐角 79.455° 88.540°
升交点赤经 354.952° 352.738°
平近点角 280.684° 179.022°
近地点 621.46km 621.455km
远地点 623.652km 623.707km
周期 97.156分钟 97.157分钟
每日圈数 14.82147 14.82139
Detailed Information
使用方式:
暂无
2D Orbit Map
3D Orbit Map
Orbit Altitude Analysis Chart
Orbit Inclination Analysis Chart
Orbit Comprehensive Analysis Chart
View Comprehensive Chart